Hourly Weather Roundup
Issued by NWS Central Illinois

Home | Current Version | Previous Version | Text Only | Print | Product List | Glossary On
Versions: 1 2 3 4 5 6 7 8 9 10 11 12 13 14 15 16 17 18 19 20 21 22 23 24 25 26 27 28 29 30 31 32 33 34 35 36 37 38 39 40 41 42 43 44 45 46 47 48 49 50
000
NZUS43 KILX 031410
HWRILX

AREA WEATHER ROUNDUP
NATIONAL WEATHER SERVICE, LINCOLN IL
900 AM CDT TUE MAY 03 2016


CITY           SKY/WX    TMP DP  RH WIND       PRES   REMARKS
BLOOMINGTON    SUNNY     55  41  59 NW9       30.01S
CHAMPAIGN      SUNNY     55  42  61 NW13      29.99S
DANVILLE       SUNNY     53  41  65 N10       29.97R
DECATUR        SUNNY     58  43  57 N7        30.01S
EFFINGHAM      CLOUDY    55  47  73 NW6       30.03R
FLORA          SUNNY     57  46  66 NW8       30.01S
GALESBURG      MOSUNNY   53  46  77 NW8       30.02S
JACKSONVILLE   SUNNY     56  47  70 NW7       30.04S
LACON          SUNNY     55  44  67 NW7       30.00S
LAWRENCEVILLE  CLOUDY    54  48  80 NW10      29.99R
LITCHFIELD     SUNNY     54  48  80 NW8       30.03S
$$


CITY           SKY/WX    TMP DP  RH WIND       PRES   REMARKS
LINCOLN        SUNNY     56  46  71 NW6       30.02S
MACOMB         MOSUNNY   56  46  68 NW9       30.05S
MATTOON        MOSUNNY   54  44  69 N12       30.00R
MT CARMEL AP   PTSUNNY   55  46  71 NW8       29.99S
OLNEY-NOBLE AP SUNNY     54  45  71 NW12G18   30.01R
PARIS          CLOUDY    51  43  75 N6        30.00R
PEORIA         SUNNY     56  42  59 N7        30.02S
PONTIAC        SUNNY     56  46  68 W9        30.00S
RANTOUL        SUNNY     57  45  64 N9        29.99S
ROBINSON       MOSUNNY   52  48  86 N10       30.00S
SPRINGFIELD    SUNNY     57  46  66 NW6       30.03S
TAYLORVILLE    SUNNY     55  43  65 NW6       30.02S
$$

...REGIONAL REPORTS...


CITY           SKY/WX    TMP DP  RH WIND       PRES   REMARKS
CHICAGO O`HARE MOSUNNY   56  36  47 W12       29.96F
KANKAKEE       SUNNY     55  40  58 W8        29.99S
MOLINE         SUNNY     56  45  66 W6        30.01S
MOUNT STERLING SUNNY     56  46  67 NW5       30.04S
MOUNT VERNON   SUNNY     57  45  62 N6        30.02S
PITTSFIELD     SUNNY     57  47  70 N3        30.06R
QUINCY         CLOUDY    54  46  74 NW5       30.05R
ROCKFORD       MOSUNNY   57  43  59 NW9       29.99F
$$


CITY           SKY/WX    TMP DP  RH WIND       PRES   REMARKS
BURLINGTON     SUNNY     56  46  69 NW9       30.03S
CEDAR RAPIDS   SUNNY     55  47  74 W10       30.01S
DES MOINES     MOSUNNY   57  45  64 W5        30.05S
KIRKSVILLE     SUNNY     55  45  68 NW7       30.07R
OTTUMWA        SUNNY     52  46  80 W8        30.04F
ST LOUIS       MOSUNNY   57  48  72 NW7       30.05R
$$


CITY           SKY/WX    TMP DP  RH WIND       PRES   REMARKS
TERRE HAUTE    CLOUDY    52  46  80 N8        29.98S
EVANSVILLE     MOSUNNY   56  45  66 N12G18    29.99S
INDIANAPOLIS   LGT RAIN  51  49  92 N9        29.95R FOG
LAFAYETTE      CLOUDY    51  42  71 N8        29.98S
MADISON        MOSUNNY   57  41  55 W9        29.94F
MILWAUKEE      MOSUNNY   57  38  48 SW8       29.94S
$$





USA.gov is the U.S. government's official web portal to all federal, state and local government web resources and services.